Weather History for Washington, GA

Change the Weather History Date:

Wednesday, January 29, 2014

  Actual Average (KDBN) Record (KDBN)
Temperature  
Mean Temperature 28 °F -  
Max Temperature 33 °F 59 °F 80 °F (1947)
Min Temperature 23 °F 32 °F 11 °F (1986)
Degree Days  
Heating Degree Days 37    
Moisture  
Dew Point 25 °F    
Average Humidity 84    
Maximum Humidity 100    
Minimum Humidity 65    
Precipitation  
Precipitation 0.00 in - - ()
Sea Level Pressure  
Sea Level Pressure 30.26 in    
Wind  
Wind Speed 2 mph (North)    
Max Wind Speed 6 mph    
Max Gust Speed -    
Visibility 10 miles    
Events      
Averages and records for this station are not official NWS values.
T = Trace of Precipitation, MM = Missing Value Source: NWS Daily Summary

Daily Weather History Graph

Daily Weather History Graph

Search for Another Location

Airport:

Trip Planner

Search our weather history database for the weather conditions in past years. The results will help you decide how hot, cold, wet, or windy it might be!

Date:

Astronomy

Jan. 29, 2014 Rise Set
Actual Time 7:29 AM EST 5:59 PM EST
Civil Twilight 7:03 AM EST 6:25 PM EST
Nautical Twilight 6:33 AM EST 6:55 PM EST
Astronomical Twilight 6:04 AM EST 7:25 PM EST
Moon 6:05 AM EST (1/29) 4:57 PM EST (1/29)
Length of Visible Light 11h 22m
Length of Day
10h 29m
Waning Crescent, 2% of the Moon is Illuminated
Jan 29
Waning Crescent
Jan 30
New
Feb 6
First Quarter
Feb 14
Full
Feb 22
Last Quarter

Hourly Weather History & Observations

Time (EST) Temp. Windchill Dew Point Humidity Pressure Visibility Wind Dir Wind Speed Gust Speed Precip Events Conditions
12:15 AM 30.2 °F - 28.4 °F 93% 30.16 in 10.0 mi Calm Calm - N/A   Mostly Cloudy
12:35 AM 30.2 °F 26.7 °F 28.4 °F 93% 30.16 in 10.0 mi NNE 3.5 mph - N/A   Mostly Cloudy
12:55 AM 30.2 °F - 26.6 °F 86% 30.17 in 10.0 mi Calm Calm - N/A   Scattered Clouds
1:15 AM 30.2 °F 26.7 °F 26.6 °F 86% 30.16 in 10.0 mi North 3.5 mph - N/A   Mostly Cloudy
1:35 AM 30.2 °F - 26.6 °F 86% 30.16 in 10.0 mi Calm Calm - N/A   Overcast
1:55 AM 28.4 °F 24.6 °F 26.6 °F 93% 30.16 in 10.0 mi North 3.5 mph - N/A   Mostly Cloudy
2:15 AM 28.4 °F - 26.6 °F 93% 30.18 in 10.0 mi Calm Calm - N/A   Scattered Clouds
2:35 AM 28.4 °F 23.3 °F 26.6 °F 93% 30.16 in 10.0 mi North 4.6 mph - N/A   Mostly Cloudy
2:55 AM 28.4 °F 23.3 °F 26.6 °F 93% 30.17 in 10.0 mi North 4.6 mph - N/A   Mostly Cloudy
3:15 AM 28.4 °F 24.6 °F 26.6 °F 93% 30.17 in 10.0 mi North 3.5 mph - N/A   Mostly Cloudy
3:35 AM 28.4 °F 22.2 °F 26.6 °F 93% 30.18 in 10.0 mi North 5.8 mph - N/A   Mostly Cloudy
3:55 AM 28.4 °F - 26.6 °F 93% 30.18 in 10.0 mi Calm Calm - N/A   Mostly Cloudy
4:15 AM 28.4 °F - 26.6 °F 93% 30.17 in 10.0 mi Calm Calm - N/A   Mostly Cloudy
4:35 AM 28.4 °F - 26.6 °F 93% 30.18 in 10.0 mi Calm Calm - N/A   Mostly Cloudy
4:55 AM 28.4 °F - 26.6 °F 93% 30.19 in 10.0 mi Calm Calm - N/A   Mostly Cloudy
5:15 AM 28.4 °F - 26.6 °F 93% 30.18 in 10.0 mi Calm Calm - N/A   Overcast
5:35 AM 28.4 °F - 26.6 °F 93% 30.18 in 10.0 mi Calm Calm - N/A   Overcast
5:55 AM 28.4 °F - 26.6 °F 93% 30.18 in 10.0 mi Calm Calm - N/A   Overcast
6:15 AM 28.4 °F - 26.6 °F 93% 30.19 in 10.0 mi Calm Calm - N/A   Overcast
6:35 AM 28.4 °F - 26.6 °F 93% 30.20 in 10.0 mi Calm Calm - N/A   Overcast
6:55 AM 28.4 °F - 26.6 °F 93% 30.20 in 10.0 mi Calm Calm - N/A   Overcast
7:15 AM 28.4 °F - 26.6 °F 93% 30.21 in 10.0 mi Calm Calm - N/A   Overcast
7:35 AM 28.4 °F - 26.6 °F 93% 30.23 in 10.0 mi Calm Calm - N/A   Overcast
7:55 AM 28.4 °F - 26.6 °F 93% 30.24 in 10.0 mi Calm Calm - N/A   Overcast
8:15 AM 28.4 °F - 26.6 °F 93% 30.24 in 10.0 mi Calm Calm - N/A   Overcast
8:35 AM 30.2 °F - 26.6 °F 86% 30.24 in 10.0 mi Calm Calm - N/A   Overcast
8:55 AM 30.2 °F 25.4 °F 24.8 °F 80% 30.26 in 10.0 mi NE 4.6 mph - N/A   Mostly Cloudy
9:15 AM 28.4 °F - 23.0 °F 80% 30.28 in 7.0 mi Calm Calm - N/A   Scattered Clouds
9:35 AM 28.4 °F 24.6 °F 23.0 °F 80% 30.30 in 4.0 mi East 3.5 mph - N/A   Haze
9:55 AM 28.4 °F 24.6 °F 24.8 °F 86% 30.31 in 2.5 mi NE 3.5 mph - N/A   Overcast
10:15 AM 30.2 °F 25.4 °F 24.8 °F 80% 30.31 in 3.0 mi NNE 4.6 mph - N/A   Haze
10:35 AM 30.2 °F 25.4 °F 24.8 °F 80% 30.31 in 5.0 mi ENE 4.6 mph - N/A   Haze
10:55 AM 30.2 °F - 24.8 °F 80% 30.32 in 5.0 mi Calm Calm - N/A   Haze
11:15 AM 32.0 °F 27.5 °F 24.8 °F 75% 30.31 in 7.0 mi NE 4.6 mph - N/A   Scattered Clouds
11:35 AM 32.0 °F 27.5 °F 24.8 °F 75% 30.31 in 10.0 mi North 4.6 mph - N/A   Scattered Clouds
11:55 AM 32.0 °F 27.5 °F 24.8 °F 75% 30.31 in 10.0 mi East 4.6 mph - N/A   Mostly Cloudy
12:15 PM 32.0 °F 28.7 °F 24.8 °F 75% 30.30 in 10.0 mi East 3.5 mph - N/A   Mostly Cloudy
12:35 PM 32.0 °F 28.7 °F 24.8 °F 75% 30.31 in 10.0 mi East 3.5 mph - N/A   Mostly Cloudy
12:55 PM 32.0 °F 27.5 °F 23.0 °F 69% 30.30 in 10.0 mi North 4.6 mph - N/A   Mostly Cloudy
1:15 PM 32.0 °F 28.7 °F 23.0 °F 69% 30.28 in 10.0 mi NNE 3.5 mph - N/A   Mostly Cloudy
1:35 PM 32.0 °F 28.7 °F 23.0 °F 69% 30.28 in 10.0 mi North 3.5 mph - N/A   Mostly Cloudy
1:55 PM 32.0 °F - 23.0 °F 69% 30.28 in 10.0 mi Calm Calm - N/A   Mostly Cloudy
2:15 PM 32.0 °F 26.4 °F 23.0 °F 69% 30.28 in 10.0 mi NNW 5.8 mph - N/A   Mostly Cloudy
2:35 PM 32.0 °F - 23.0 °F 69% 30.29 in 10.0 mi Calm Calm - N/A   Overcast
2:55 PM 32.0 °F - 23.0 °F 69% 30.29 in 10.0 mi Calm Calm - N/A   Overcast
3:15 PM 32.0 °F - 23.0 °F 69% 30.29 in 10.0 mi Calm Calm - N/A   Mostly Cloudy
3:35 PM 33.8 °F - 23.0 °F 65% 30.29 in 10.0 mi Calm Calm - N/A   Overcast
3:55 PM 32.0 °F 27.5 °F 23.0 °F 69% 30.28 in 10.0 mi NW 4.6 mph - N/A   Overcast
4:15 PM 32.0 °F 28.7 °F 23.0 °F 69% 30.29 in 10.0 mi WNW 3.5 mph - N/A   Scattered Clouds
4:35 PM 33.8 °F 30.8 °F 24.8 °F 70% 30.29 in 10.0 mi WNW 3.5 mph - N/A   Clear
4:55 PM 33.8 °F - 24.8 °F 70% 30.30 in 10.0 mi Calm Calm - N/A   Scattered Clouds
5:15 PM 33.8 °F - 24.8 °F 70% 30.30 in 10.0 mi Calm Calm - N/A   Scattered Clouds
5:35 PM 32.0 °F 28.7 °F 23.0 °F 69% 30.29 in 10.0 mi WNW 3.5 mph - N/A   Clear
5:55 PM 32.0 °F 28.7 °F 23.0 °F 69% 30.30 in 10.0 mi West 3.5 mph - N/A   Clear
6:15 PM 32.0 °F - 24.8 °F 75% 30.30 in 10.0 mi Calm Calm - N/A   Clear
6:35 PM 32.0 °F - 24.8 °F 75% 30.30 in 10.0 mi Calm Calm - N/A   Clear
6:55 PM 30.2 °F - 23.0 °F 75% 30.31 in 10.0 mi Calm Calm - N/A   Clear
7:15 PM 30.2 °F - 23.0 °F 75% 30.30 in 10.0 mi Calm Calm - N/A   Clear
7:35 PM 30.2 °F - 23.0 °F 75% 30.31 in 10.0 mi Calm Calm - N/A   Clear
7:55 PM 30.2 °F - 24.8 °F 80% 30.31 in 10.0 mi Calm Calm - N/A   Clear
8:15 PM 28.4 °F 24.6 °F 23.0 °F 80% 30.31 in 10.0 mi WNW 3.5 mph - N/A   Clear
8:35 PM 28.4 °F - 24.8 °F 86% 30.31 in 10.0 mi Calm Calm - N/A   Clear
8:55 PM 26.6 °F - 24.8 °F 93% 30.31 in 10.0 mi Calm Calm - N/A   Clear
9:15 PM 26.6 °F - 24.8 °F 93% 30.31 in 10.0 mi Calm Calm - N/A   Clear
9:35 PM 26.6 °F - 24.8 °F 93% 30.32 in 10.0 mi Calm Calm - N/A   Clear
9:55 PM 26.6 °F - 24.8 °F 93% 30.32 in 10.0 mi Calm Calm - N/A   Clear
10:15 PM 24.8 °F - 24.8 °F 100% 30.33 in 10.0 mi Calm Calm - N/A   Clear
10:35 PM 23.0 °F - 23.0 °F 100% 30.32 in 10.0 mi Calm Calm - N/A   Clear
10:55 PM 23.0 °F - 23.0 °F 100% 30.32 in 10.0 mi Calm Calm - N/A   Clear
11:15 PM 23.0 °F - 21.2 °F 93% 30.33 in 10.0 mi Calm Calm - N/A   Clear
11:35 PM 23.0 °F - 21.2 °F 93% 30.34 in 10.0 mi Calm Calm - N/A   Clear
11:55 PM 23.0 °F - 23.0 °F 100% 30.33 in 7.0 mi Calm Calm - N/A   Clear